SEY78 FSIA-FMCZ

Flight info

Callsign SEY78
Flight time 2h 51m
Altitude 36000
Route IMPOX1A IMPOX DCT OKLAB UM307 NESAM DCT BIRAL DCT SOAVI
Aircraft B77L/H-SDE1E2E3FGHIJ2J3J4J5M1RWXY/LB1D1

Departure

Time 2026-04-25 12:22
Airport Seychelles International Airport (FSIA)

Arrival

Time 2026-04-25 15:14
Airport Dzaoudzi Pamandzi International Airport (FMCZ)
Time Latitude Longitude Altitude Speed Heading
2026-04-25 11:42 -4.67116 55.51279 25 ft 0 kts 215°
2026-04-25 12:06 -4.67105 55.51286 37 ft 4 kts 211°
2026-04-25 12:06 -4.67081 55.51298 23 ft 4 kts 199°
2026-04-25 12:06 -4.67055 55.51306 30 ft 4 kts 188°
2026-04-25 12:07 -4.67029 55.51308 30 ft 4 kts 180°
2026-04-25 12:07 -4.67002 55.51308 30 ft 4 kts 181°
2026-04-25 12:07 -4.66977 55.51310 30 ft 3 kts 204°
2026-04-25 12:07 -4.66974 55.51311 30 ft 0 kts 206°
2026-04-25 12:11 -4.66975 55.51311 25 ft 1 kts 207°
2026-04-25 12:12 -4.67014 55.51284 29 ft 5 kts 205°
2026-04-25 12:12 -4.67037 55.51280 29 ft 5 kts 202°
2026-04-25 12:12 -4.67026 55.51247 30 ft 4 kts 323°
2026-04-25 12:12 -4.67005 55.51227 30 ft 4 kts 315°
2026-04-25 12:13 -4.66982 55.51208 27 ft 4 kts 327°
2026-04-25 12:13 -4.66954 55.51203 27 ft 4 kts
2026-04-25 12:13 -4.66918 55.51201 27 ft 7 kts 345°
2026-04-25 12:13 -4.66869 55.51159 27 ft 12 kts 306°
2026-04-25 12:14 -4.66814 55.51075 29 ft 16 kts 302°
2026-04-25 12:14 -4.66756 55.51026 28 ft 2 kts 356°
2026-04-25 12:14 -4.66728 55.51036 29 ft 8 kts 26°
2026-04-25 12:14 -4.66693 55.51078 27 ft 9 kts 91°
2026-04-25 12:15 -4.66717 55.51133 27 ft 10 kts 123°
2026-04-25 12:15 -4.66799 55.51252 27 ft 32 kts 125°
2026-04-25 12:15 -4.66944 55.51461 28 ft 36 kts 124°
2026-04-25 12:15 -4.67077 55.51657 28 ft 33 kts 124°
2026-04-25 12:16 -4.67202 55.51837 26 ft 30 kts 124°
2026-04-25 12:16 -4.67320 55.52009 26 ft 30 kts 124°
2026-04-25 12:16 -4.67439 55.52182 27 ft 30 kts 124°
2026-04-25 12:16 -4.67557 55.52354 28 ft 30 kts 124°
2026-04-25 12:17 -4.67683 55.52535 26 ft 34 kts 124°
2026-04-25 12:17 -4.67823 55.52740 29 ft 37 kts 125°
2026-04-25 12:17 -4.67976 55.52960 29 ft 38 kts 124°
2026-04-25 12:17 -4.68090 55.53125 27 ft 21 kts 133°
2026-04-25 12:18 -4.68208 55.53167 29 ft 7 kts 169°
2026-04-25 12:18 -4.68246 55.53177 27 ft 6 kts 159°
2026-04-25 12:18 -4.68268 55.53213 28 ft 7 kts 89°
2026-04-25 12:18 -4.68233 55.53253 27 ft 8 kts 34°
2026-04-25 12:19 -4.68157 55.53227 30 ft 8 kts 305°
2026-04-25 12:19 -4.68146 55.53211 30 ft 0 kts 305°
2026-04-25 12:21 -4.68109 55.53158 24 ft 25 kts 305°
2026-04-25 12:22 -4.67869 55.52807 30 ft 99 kts 304°
2026-04-25 12:22 -4.67342 55.52041 27 ft 166 kts 304°
2026-04-25 12:22 -4.66601 55.50971 257 ft 194 kts 304°
2026-04-25 12:22 -4.65831 55.49886 911 ft 197 kts 311°
2026-04-25 12:23 -4.64811 55.48952 1508 ft 199 kts 326°
2026-04-25 12:23 -4.63480 55.48463 1825 ft 215 kts 354°
2026-04-25 12:23 -4.61934 55.48352 2010 ft 233 kts 354°
2026-04-25 12:23 -4.60262 55.48161 2340 ft 248 kts 352°
2026-04-25 12:24 -4.58519 55.47916 2839 ft 258 kts 351°
2026-04-25 12:24 -4.56717 55.47642 3387 ft 265 kts 351°
2026-04-25 12:24 -4.54943 55.47127 3882 ft 270 kts 327°
2026-04-25 12:24 -4.53648 55.45786 4456 ft 272 kts 295°
2026-04-25 12:25 -4.53227 55.43983 5092 ft 271 kts 268°
2026-04-25 12:25 -4.53323 55.42084 5666 ft 276 kts 266°
2026-04-25 12:25 -4.53443 55.40156 6337 ft 278 kts 266°
2026-04-25 12:25 -4.53562 55.38217 6970 ft 280 kts 266°
2026-04-25 12:26 -4.53678 55.36259 7555 ft 284 kts 266°
2026-04-25 12:26 -4.53792 55.34273 8145 ft 287 kts 266°
2026-04-25 12:26 -4.54162 55.32317 8622 ft 290 kts 244°
2026-04-25 12:26 -4.55387 55.30724 9134 ft 292 kts 216°
2026-04-25 12:27 -4.57185 55.29855 9715 ft 294 kts 192°
2026-04-25 12:27 -4.59218 55.29641 10139 ft 297 kts 182°
2026-04-25 12:27 -4.61344 55.29556 10355 ft 316 kts 181°
2026-04-25 12:27 -4.63611 55.29488 10496 ft 336 kts 181°
2026-04-25 12:28 -4.66019 55.29418 10665 ft 356 kts 181°
2026-04-25 12:28 -4.68562 55.29340 10843 ft 374 kts 181°
2026-04-25 12:28 -4.71203 55.29251 11269 ft 385 kts 181°
2026-04-25 12:28 -4.73903 55.29154 11811 ft 391 kts 181°
2026-04-25 12:29 -4.76637 55.29051 12471 ft 395 kts 181°
2026-04-25 12:29 -4.79353 55.28947 13166 ft 397 kts 181°
2026-04-25 12:29 -4.82131 55.28839 13783 ft 402 kts 181°
2026-04-25 12:29 -4.84938 55.28730 14310 ft 406 kts 181°
2026-04-25 12:30 -4.87775 55.28619 14869 ft 409 kts 181°
2026-04-25 12:30 -4.90628 55.28507 15451 ft 412 kts 181°
2026-04-25 12:30 -4.93505 55.28395 16023 ft 415 kts 181°
2026-04-25 12:30 -4.96400 55.28282 16567 ft 418 kts 181°
2026-04-25 12:31 -4.99325 55.28168 17104 ft 422 kts 181°
2026-04-25 12:31 -5.02225 55.28055 17618 ft 425 kts 181°
2026-04-25 12:31 -5.05195 55.27939 18132 ft 429 kts 181°
2026-04-25 12:31 -5.08162 55.27663 18470 ft 431 kts 193°
2026-04-25 12:32 -5.10929 55.26476 18761 ft 438 kts 213°
2026-04-25 12:32 -5.13237 55.24480 19224 ft 440 kts 230°
2026-04-25 12:32 -5.14966 55.21954 19670 ft 440 kts 238°
2026-04-25 12:32 -5.16551 55.19294 19986 ft 446 kts 239°
2026-04-25 12:33 -5.18121 55.16599 20418 ft 448 kts 239°
2026-04-25 12:33 -5.19691 55.13896 20906 ft 450 kts 239°
2026-04-25 12:33 -5.21259 55.11215 21322 ft 453 kts 239°
2026-04-25 12:33 -5.22866 55.08493 21742 ft 455 kts 239°
2026-04-25 12:34 -5.24491 55.05761 22170 ft 457 kts 239°
2026-04-25 12:34 -5.26130 55.03019 22584 ft 459 kts 239°
2026-04-25 12:34 -5.27781 55.00267 22975 ft 462 kts 239°
2026-04-25 12:34 -5.28881 54.98434 23230 ft 464 kts 239°
2026-04-25 12:35 -5.31113 54.94720 23702 ft 467 kts 239°
2026-04-25 12:35 -5.32791 54.91926 24034 ft 468 kts 239°
2026-04-25 12:35 -5.34451 54.89161 24380 ft 470 kts 239°
2026-04-25 12:35 -5.36139 54.86348 24707 ft 471 kts 239°
2026-04-25 12:36 -5.37836 54.83520 25029 ft 473 kts 239°
2026-04-25 12:36 -5.39535 54.80688 25355 ft 474 kts 239°
2026-04-25 12:36 -5.41238 54.77848 25674 ft 476 kts 239°
2026-04-25 12:36 -5.42949 54.74996 25992 ft 478 kts 239°
2026-04-25 12:37 -5.44645 54.72168 26255 ft 481 kts 239°
2026-04-25 12:37 -5.46370 54.69290 26545 ft 483 kts 239°
2026-04-25 12:37 -5.48107 54.66391 26824 ft 485 kts 239°
2026-04-25 12:37 -5.49848 54.63488 27102 ft 487 kts 239°
2026-04-25 12:38 -5.51595 54.60572 27402 ft 488 kts 239°
2026-04-25 12:38 -5.53348 54.57646 27690 ft 490 kts 239°
2026-04-25 12:38 -5.55107 54.54710 27960 ft 492 kts 239°
2026-04-25 12:38 -5.56877 54.51757 28220 ft 494 kts 239°
2026-04-25 12:39 -5.58650 54.48796 28477 ft 496 kts 239°
2026-04-25 12:39 -5.60406 54.45864 28728 ft 498 kts 239°
2026-04-25 12:39 -5.62186 54.42889 28986 ft 499 kts 240°
2026-04-25 12:40 -5.63860 54.40094 29188 ft 501 kts 240°
2026-04-25 12:40 -5.65655 54.37094 29431 ft 502 kts 240°
2026-04-25 12:40 -5.67455 54.34088 29756 ft 501 kts 240°
2026-04-25 12:40 -5.69245 54.31098 30107 ft 499 kts 240°
2026-04-25 12:41 -5.71033 54.28110 30409 ft 499 kts 240°
2026-04-25 12:41 -5.72818 54.25126 30691 ft 499 kts 240°
2026-04-25 12:41 -5.74579 54.22182 30947 ft 499 kts 240°
2026-04-25 12:41 -5.76362 54.19201 31216 ft 498 kts 240°
2026-04-25 12:42 -5.78146 54.16217 31514 ft 498 kts 240°
2026-04-25 12:42 -5.78749 54.15209 31615 ft 498 kts 240°
2026-04-25 12:42 -5.81708 54.10259 32090 ft 497 kts 240°
2026-04-25 12:42 -5.83487 54.07283 32365 ft 497 kts 240°
2026-04-25 12:43 -5.85263 54.04311 32644 ft 497 kts 240°
2026-04-25 12:43 -5.87039 54.01339 32926 ft 496 kts 240°
2026-04-25 12:43 -5.90563 53.95439 33472 ft 495 kts 240°
2026-04-25 12:44 -5.92334 53.92475 33752 ft 495 kts 240°
2026-04-25 12:44 -5.94107 53.89506 33984 ft 495 kts 240°
2026-04-25 12:44 -5.97641 53.83586 34463 ft 494 kts 240°
2026-04-25 12:45 -5.99405 53.80631 34704 ft 493 kts 240°
2026-04-25 12:45 -6.01169 53.77675 34860 ft 494 kts 240°
2026-04-25 12:45 -6.04716 53.71729 35056 ft 498 kts 240°
2026-04-25 12:46 -6.06475 53.68779 35178 ft 500 kts 240°
2026-04-25 12:46 -6.08263 53.65781 35313 ft 500 kts 240°
2026-04-25 12:46 -6.10054 53.62778 35444 ft 501 kts 240°
2026-04-25 12:46 -6.11849 53.59767 35563 ft 502 kts 240°
2026-04-25 12:47 -6.13646 53.56753 35681 ft 504 kts 240°
2026-04-25 12:47 -6.15446 53.53733 35757 ft 505 kts 240°
2026-04-25 12:47 -6.19041 53.47700 35844 ft 507 kts 241°
2026-04-25 12:48 -6.22666 53.41614 35844 ft 507 kts 241°
2026-04-25 12:48 -6.26288 53.35534 35853 ft 507 kts 241°
2026-04-25 12:49 -6.29903 53.29459 35848 ft 506 kts 241°
2026-04-25 12:49 -6.33513 53.23393 35847 ft 505 kts 241°
2026-04-25 12:50 -6.37096 53.17368 35851 ft 505 kts 241°
2026-04-25 12:50 -6.40723 53.11320 35852 ft 505 kts 239°
2026-04-25 12:51 -6.44945 53.05668 35858 ft 506 kts 233°
2026-04-25 12:51 -6.49393 53.00174 35852 ft 507 kts 233°
2026-04-25 12:52 -6.53805 52.94710 35854 ft 506 kts 233°
2026-04-25 12:52 -6.58214 52.89191 35857 ft 506 kts 233°
2026-04-25 12:53 -6.62608 52.83664 35855 ft 506 kts 233°
2026-04-25 12:53 -6.66999 52.78136 35856 ft 506 kts 233°
2026-04-25 12:54 -6.71387 52.72612 35855 ft 505 kts 233°
2026-04-25 12:54 -6.75746 52.67126 35854 ft 505 kts 233°
2026-04-25 12:55 -6.78676 52.63438 35853 ft 505 kts 233°
2026-04-25 12:55 -6.84504 52.56099 35851 ft 504 kts 233°
2026-04-25 12:56 -6.88880 52.50586 35854 ft 504 kts 233°
2026-04-25 12:56 -6.93222 52.45115 35853 ft 503 kts 233°
2026-04-25 12:57 -6.97587 52.39612 35855 ft 503 kts 234°
2026-04-25 12:57 -7.01952 52.34107 35855 ft 503 kts 234°
2026-04-25 12:58 -7.06314 52.28605 35855 ft 503 kts 234°
2026-04-25 12:58 -7.10675 52.23101 35855 ft 502 kts 234°
2026-04-25 12:59 -7.15002 52.17640 35856 ft 502 kts 234°
2026-04-25 12:59 -7.19359 52.12138 35853 ft 502 kts 234°
2026-04-25 13:00 -7.22269 52.08462 35856 ft 502 kts 234°
2026-04-25 13:00 -7.28064 52.01140 35853 ft 502 kts 234°
2026-04-25 13:01 -7.32384 51.95679 35858 ft 502 kts 234°
2026-04-25 13:01 -7.36733 51.90179 35864 ft 502 kts 234°
2026-04-25 13:02 -7.41083 51.84677 35858 ft 502 kts 234°
2026-04-25 13:02 -7.45431 51.79175 35860 ft 502 kts 234°
2026-04-25 13:03 -7.49045 51.74600 35860 ft 502 kts 234°
2026-04-25 13:03 -7.54095 51.68206 35859 ft 502 kts 234°
2026-04-25 13:04 -7.58438 51.62705 35856 ft 502 kts 234°
2026-04-25 13:04 -7.62779 51.57205 35859 ft 501 kts 234°
2026-04-25 13:05 -7.66387 51.52630 35856 ft 501 kts 234°
2026-04-25 13:05 -7.71431 51.46234 35861 ft 501 kts 234°
2026-04-25 13:06 -7.75063 51.41627 35860 ft 501 kts 234°
2026-04-25 13:06 -7.79367 51.36165 35862 ft 501 kts 234°
2026-04-25 13:07 -7.83701 51.30664 35863 ft 500 kts 234°
2026-04-25 13:07 -7.88029 51.25168 35869 ft 500 kts 234°
2026-04-25 13:08 -7.93050 51.18788 35864 ft 500 kts 234°
2026-04-25 13:08 -7.97381 51.13285 35867 ft 500 kts 234°
2026-04-25 13:09 -8.00974 51.08717 35867 ft 500 kts 234°
2026-04-25 13:09 -8.05294 51.03222 35865 ft 500 kts 234°
2026-04-25 13:10 -8.09615 50.97724 35865 ft 500 kts 234°
2026-04-25 13:10 -8.13932 50.92229 35865 ft 500 kts 234°
2026-04-25 13:11 -8.18227 50.86761 35870 ft 500 kts 234°
2026-04-25 13:11 -8.22544 50.81262 35869 ft 500 kts 234°
2026-04-25 13:12 -8.26861 50.75761 35869 ft 500 kts 234°
2026-04-25 13:12 -8.30444 50.71194 35870 ft 500 kts 234°
2026-04-25 13:13 -8.35464 50.64791 35872 ft 500 kts 234°
2026-04-25 13:13 -8.39777 50.59290 35870 ft 500 kts 234°
2026-04-25 13:14 -8.44086 50.53790 35872 ft 499 kts 234°
2026-04-25 13:14 -8.48396 50.48287 35871 ft 499 kts 234°
2026-04-25 13:15 -8.52704 50.42784 35873 ft 499 kts 234°
2026-04-25 13:15 -8.56980 50.37320 35872 ft 499 kts 234°
2026-04-25 13:16 -8.61282 50.31820 35872 ft 499 kts 234°
2026-04-25 13:16 -8.65581 50.26322 35871 ft 498 kts 234°
2026-04-25 13:17 -8.69878 50.20825 35875 ft 498 kts 234°
2026-04-25 13:17 -8.74171 50.15330 35876 ft 498 kts 234°
2026-04-25 13:18 -8.78432 50.09874 35875 ft 498 kts 234°
2026-04-25 13:18 -8.82721 50.04380 35876 ft 497 kts 234°
2026-04-25 13:19 -8.87005 49.98890 35877 ft 497 kts 234°
2026-04-25 13:19 -8.90565 49.94326 35878 ft 497 kts 234°
2026-04-25 13:20 -8.95534 49.87953 35877 ft 496 kts 234°
2026-04-25 13:20 -8.99802 49.82476 35877 ft 496 kts 234°
2026-04-25 13:21 -9.04070 49.76997 35878 ft 496 kts 234°
2026-04-25 13:21 -9.08336 49.71518 35875 ft 495 kts 234°
2026-04-25 13:22 -9.12568 49.66081 35878 ft 495 kts 234°
2026-04-25 13:23 -9.18956 49.57870 35879 ft 495 kts 234°
2026-04-25 13:23 -9.23213 49.52394 35880 ft 494 kts 234°
2026-04-25 13:24 -9.27436 49.46960 35883 ft 494 kts 234°
2026-04-25 13:24 -9.31679 49.41497 35881 ft 494 kts 234°
2026-04-25 13:25 -9.35920 49.36036 35881 ft 493 kts 234°
2026-04-25 13:25 -9.40158 49.30575 35883 ft 492 kts 234°
2026-04-25 13:26 -9.44385 49.25126 35881 ft 492 kts 234°
2026-04-25 13:26 -9.48579 49.19718 35888 ft 491 kts 234°
2026-04-25 13:27 -9.52800 49.14272 35886 ft 491 kts 234°
2026-04-25 13:27 -9.57014 49.08833 35888 ft 490 kts 234°
2026-04-25 13:28 -9.61194 49.03435 35888 ft 490 kts 234°
2026-04-25 13:28 -9.65398 48.98004 35888 ft 490 kts 234°
2026-04-25 13:29 -9.69600 48.92572 35891 ft 490 kts 234°
2026-04-25 13:29 -9.73801 48.87140 35890 ft 489 kts 234°
2026-04-25 13:30 -9.78885 48.80562 35890 ft 489 kts 234°
2026-04-25 13:31 -9.85178 48.72415 35893 ft 489 kts 234°
2026-04-25 13:31 -9.89374 48.66980 35893 ft 490 kts 234°
2026-04-25 13:32 -9.93547 48.61571 35891 ft 490 kts 234°
2026-04-25 13:32 -9.97745 48.56127 35892 ft 490 kts 234°
2026-04-25 13:33 -10.02165 48.50853 35896 ft 492 kts 228°
2026-04-25 13:33 -10.06996 48.45920 35895 ft 493 kts 227°
2026-04-25 13:34 -10.11858 48.41000 35891 ft 493 kts 227°
2026-04-25 13:34 -10.16663 48.36090 35891 ft 494 kts 228°
2026-04-25 13:35 -10.21488 48.31129 35894 ft 494 kts 228°
2026-04-25 13:35 -10.26313 48.26159 35896 ft 494 kts 228°
2026-04-25 13:36 -10.31139 48.21188 35895 ft 494 kts 227°
2026-04-25 13:36 -10.35935 48.16249 35897 ft 494 kts 227°
2026-04-25 13:37 -10.40766 48.11270 35900 ft 495 kts 227°
2026-04-25 13:37 -10.45594 48.06293 35899 ft 495 kts 227°
2026-04-25 13:38 -10.50391 48.01345 35899 ft 494 kts 227°
2026-04-25 13:38 -10.55215 47.96367 35904 ft 494 kts 227°
2026-04-25 13:39 -10.60037 47.91388 35902 ft 494 kts 227°
2026-04-25 13:39 -10.64858 47.86409 35903 ft 494 kts 227°
2026-04-25 13:40 -10.68862 47.82271 35903 ft 494 kts 227°
2026-04-25 13:40 -10.73120 47.77868 35902 ft 493 kts 227°
2026-04-25 13:41 -10.77931 47.72892 35903 ft 493 kts 227°
2026-04-25 13:41 -10.82741 47.67914 35904 ft 493 kts 227°
2026-04-25 13:42 -10.87550 47.62934 35907 ft 493 kts 227°
2026-04-25 13:42 -10.92288 47.57958 35905 ft 492 kts 231°
2026-04-25 13:43 -10.96406 47.52431 35911 ft 489 kts 237°
2026-04-25 13:43 -11.00327 47.46763 35907 ft 490 kts 237°
2026-04-25 13:44 -11.04260 47.41106 35906 ft 490 kts 237°
2026-04-25 13:44 -11.08191 47.35489 35906 ft 490 kts 237°
2026-04-25 13:45 -11.12153 47.29840 35906 ft 490 kts 236°
2026-04-25 13:45 -11.16115 47.24188 35906 ft 490 kts 237°
2026-04-25 13:46 -11.20074 47.18536 35905 ft 490 kts 237°
2026-04-25 13:46 -11.24033 47.12878 35904 ft 490 kts 237°
2026-04-25 13:47 -11.27964 47.07258 35906 ft 490 kts 237°
2026-04-25 13:47 -11.31924 47.01593 35907 ft 490 kts 236°
2026-04-25 13:48 -11.35880 46.95932 35906 ft 490 kts 236°
2026-04-25 13:48 -11.39836 46.90267 35908 ft 490 kts 236°
2026-04-25 13:49 -11.43763 46.84640 35912 ft 490 kts 236°
2026-04-25 13:49 -11.47716 46.78973 35910 ft 490 kts 236°
2026-04-25 13:50 -11.51661 46.73314 35906 ft 489 kts 236°
2026-04-25 13:50 -11.55576 46.67697 35903 ft 483 kts 236°
2026-04-25 13:51 -11.59454 46.62128 35881 ft 480 kts 236°
2026-04-25 13:51 -11.61352 46.59402 35555 ft 476 kts 236°
2026-04-25 13:51 -11.63265 46.56653 35066 ft 474 kts 236°
2026-04-25 13:51 -11.65167 46.53919 34577 ft 471 kts 236°
2026-04-25 13:52 -11.67057 46.51202 34144 ft 468 kts 236°
2026-04-25 13:52 -11.68926 46.48515 33836 ft 461 kts 236°
2026-04-25 13:52 -11.70765 46.45870 33530 ft 451 kts 236°
2026-04-25 13:52 -11.72555 46.43297 33037 ft 439 kts 236°
2026-04-25 13:53 -11.74302 46.40783 32230 ft 430 kts 236°
2026-04-25 13:53 -11.76025 46.38302 31287 ft 427 kts 236°
2026-04-25 13:53 -11.77708 46.35876 30391 ft 423 kts 235°
2026-04-25 13:53 -11.79400 46.33437 29462 ft 419 kts 235°
2026-04-25 13:54 -11.81071 46.31029 28614 ft 411 kts 235°
2026-04-25 13:54 -11.82707 46.28672 27833 ft 403 kts 235°
2026-04-25 13:54 -11.84311 46.26358 27047 ft 396 kts 234°
2026-04-25 13:54 -11.85893 46.24078 26239 ft 391 kts 234°
2026-04-25 13:55 -11.87453 46.21827 25469 ft 386 kts 234°
2026-04-25 13:55 -11.88992 46.19607 24756 ft 380 kts 234°
2026-04-25 13:55 -11.90506 46.17422 24065 ft 374 kts 234°
2026-04-25 13:55 -11.91978 46.15298 23379 ft 368 kts 234°
2026-04-25 13:56 -11.93444 46.13181 22602 ft 362 kts 234°
2026-04-25 13:56 -11.94889 46.11096 21832 ft 357 kts 233°
2026-04-25 13:56 -11.96316 46.09034 21069 ft 353 kts 233°
2026-04-25 13:56 -11.97725 46.07000 20326 ft 349 kts 233°
2026-04-25 13:57 -11.99119 46.04986 19602 ft 346 kts 233°
2026-04-25 13:57 -12.00035 46.03663 19145 ft 343 kts 233°
2026-04-25 13:57 -12.01867 46.01014 18232 ft 338 kts 233°
2026-04-25 13:57 -12.03217 45.99064 17486 ft 335 kts 233°
2026-04-25 13:58 -12.04530 45.97165 17350 ft 317 kts 233°
2026-04-25 13:58 -12.05814 45.95309 17364 ft 335 kts 233°
2026-04-25 13:58 -12.07198 45.93311 17399 ft 355 kts 233°
2026-04-25 13:58 -12.08669 45.91187 17442 ft 376 kts 233°
2026-04-25 13:59 -12.10214 45.88954 17368 ft 390 kts 233°
2026-04-25 13:59 -12.11799 45.86681 16882 ft 394 kts 232°
2026-04-25 13:59 -12.13500 45.84510 16374 ft 384 kts 229°
2026-04-25 13:59 -12.15151 45.82530 15859 ft 365 kts 228°
2026-04-25 15:00 -12.15661 45.81926 15716 ft 361 kts 228°
2026-04-25 15:00 -12.16427 45.81024 15477 ft 354 kts 228°
2026-04-25 15:01 -12.18012 45.79157 14999 ft 342 kts 229°
2026-04-25 15:01 -12.19537 45.77350 14518 ft 330 kts 229°
2026-04-25 15:01 -12.21011 45.75596 14051 ft 320 kts 229°
2026-04-25 15:01 -12.22435 45.73892 13564 ft 312 kts 230°
2026-04-25 15:02 -12.23829 45.72220 13059 ft 306 kts 229°
2026-04-25 15:02 -12.25192 45.70580 12553 ft 300 kts 229°
2026-04-25 15:02 -12.26515 45.68987 12066 ft 297 kts 229°
2026-04-25 15:02 -12.27846 45.67382 11591 ft 296 kts 229°
2026-04-25 15:03 -12.29185 45.65768 11217 ft 299 kts 229°
2026-04-25 15:03 -12.30533 45.64143 10936 ft 301 kts 228°
2026-04-25 15:03 -12.31888 45.62509 10641 ft 301 kts 228°
2026-04-25 15:03 -12.33244 45.60872 10348 ft 302 kts 228°
2026-04-25 15:04 -12.34595 45.59241 10057 ft 299 kts 228°
2026-04-25 15:04 -12.35928 45.57630 9730 ft 295 kts 228°
2026-04-25 15:04 -12.37246 45.56038 9390 ft 291 kts 228°
2026-04-25 15:04 -12.38529 45.54487 9058 ft 289 kts 228°
2026-04-25 15:05 -12.39826 45.52921 8729 ft 288 kts 228°
2026-04-25 15:05 -12.41124 45.51352 8425 ft 288 kts 228°
2026-04-25 15:05 -12.42418 45.49789 8107 ft 288 kts 228°
2026-04-25 15:06 -12.44998 45.46670 7491 ft 287 kts 227°
2026-04-25 15:06 -12.46286 45.45113 7188 ft 286 kts 227°
2026-04-25 15:06 -12.47551 45.43583 6888 ft 285 kts 227°
2026-04-25 15:06 -12.48831 45.42034 6585 ft 284 kts 227°
2026-04-25 15:07 -12.50104 45.40494 6287 ft 283 kts 227°
2026-04-25 15:07 -12.51374 45.38956 5963 ft 282 kts 227°
2026-04-25 15:07 -12.52639 45.37427 5658 ft 281 kts 227°
2026-04-25 15:07 -12.53895 45.35905 5344 ft 279 kts 227°
2026-04-25 15:08 -12.55146 45.34391 5027 ft 278 kts 227°
2026-04-25 15:08 -12.56390 45.32884 4715 ft 276 kts 227°
2026-04-25 15:08 -12.57607 45.31410 4409 ft 274 kts 227°
2026-04-25 15:08 -12.58834 45.29924 4081 ft 272 kts 228°
2026-04-25 15:09 -12.60051 45.28449 3782 ft 270 kts 228°
2026-04-25 15:09 -12.61260 45.26984 3464 ft 268 kts 228°
2026-04-25 15:09 -12.63644 45.24095 2978 ft 259 kts 228°
2026-04-25 15:10 -12.64789 45.22706 2922 ft 254 kts 228°
2026-04-25 15:10 -12.66053 45.21450 2911 ft 257 kts 207°
2026-04-25 15:10 -12.69391 45.21114 2304 ft 235 kts 161°
2026-04-25 15:11 -12.70789 45.21777 2040 ft 214 kts 147°
2026-04-25 15:11 -12.71959 45.22594 1783 ft 197 kts 145°
2026-04-25 15:11 -12.72600 45.23074 1674 ft 191 kts 144°
2026-04-25 15:12 -12.72705 45.23154 1665 ft 189 kts 144°
2026-04-25 15:12 -12.73738 45.23920 1711 ft 179 kts 146°
2026-04-25 15:12 -12.74786 45.24593 1635 ft 175 kts 149°
2026-04-25 15:12 -12.75124 45.24795 1551 ft 172 kts 150°
2026-04-25 15:13 -12.76758 45.25733 948 ft 157 kts 150°
2026-04-25 15:13 -12.78626 45.26871 518 ft 153 kts 150°
2026-04-25 15:13 -12.79535 45.27402 246 ft 149 kts 151°
2026-04-25 15:14 -12.80426 45.27912 37 ft 142 kts 152°
2026-04-25 15:14 -12.81142 45.28341 31 ft 78 kts 150°
2026-04-25 15:14 -12.81427 45.28509 35 ft 25 kts 150°
2026-04-25 15:14 -12.81580 45.28597 36 ft 22 kts 156°
2026-04-25 15:15 -12.81662 45.28620 37 ft 8 kts 124°
2026-04-25 15:15 -12.81662 45.28630 37 ft 2 kts 82°
2026-04-25 15:15 -12.81644 45.28633 37 ft 3 kts 344°
2026-04-25 15:15 -12.81599 45.28609 36 ft 12 kts 333°
2026-04-25 15:16 -12.81514 45.28559 35 ft 16 kts 329°
2026-04-25 15:16 -12.81414 45.28499 35 ft 17 kts 330°
2026-04-25 15:16 -12.81181 45.28362 31 ft 20 kts 330°
2026-04-25 15:17 -12.80936 45.28218 29 ft 20 kts 330°
2026-04-25 15:17 -12.80813 45.28146 29 ft 20 kts 330°
2026-04-25 15:17 -12.80690 45.28073 28 ft 20 kts 330°
2026-04-25 15:18 -12.80569 45.28002 27 ft 20 kts 329°
2026-04-25 15:18 -12.80408 45.28053 28 ft 14 kts 61°
2026-04-25 15:18 -12.80387 45.28135 27 ft 11 kts 116°
2026-04-25 15:19 -12.80424 45.28173 29 ft 5 kts 117°
2026-04-25 15:19 -12.80426 45.28185 30 ft 5 kts 96°
2026-04-25 15:19 -12.80399 45.28243 28 ft 5 kts 61°
2026-04-25 15:19 -12.80398 45.28244 28 ft 0 kts 61°
2026-04-25 15:20 -12.80393 45.28253 28 ft 0 kts 61°
2026-04-25 15:32 -12.80393 45.28254 29 ft 0 kts 61°